TimeEDT,TemperatureF,Dew PointF,Humidity,Sea Level PressureIn,VisibilityMPH,Wind Direction,Wind SpeedMPH,Gust SpeedMPH,PrecipitationIn,Events,Conditions,WindDirDegrees,DateUTC
12:15 AM,41.5,36.1,81,30.06,10.0,Calm,Calm,-,N/A,,Clear,0,2013-04-02 04:15:00
12:35 AM,40.5,36.7,86,30.06,10.0,Calm,Calm,-,N/A,,Clear,0,2013-04-02 04:35:00
12:55 AM,37.9,35.6,91,30.06,10.0,Calm,Calm,-,N/A,,Clear,0,2013-04-02 04:55:00
1:15 AM,39.2,35.6,87,30.06,10.0,Calm,Calm,-,N/A,,Clear,0,2013-04-02 05:15:00
1:35 AM,38.3,34.7,87,30.06,10.0,Calm,Calm,-,N/A,,Clear,0,2013-04-02 05:35:00
2:15 AM,36.5,34.9,94,30.05,10.0,Calm,Calm,-,N/A,,Clear,0,2013-04-02 06:15:00
2:35 AM,36.0,33.4,91,30.05,10.0,Calm,Calm,-,N/A,,Clear,0,2013-04-02 06:35:00
2:55 AM,36.5,33.6,89,30.06,10.0,Calm,Calm,-,N/A,,Clear,0,2013-04-02 06:55:00
3:15 AM,35.2,32.9,91,30.06,10.0,Calm,Calm,-,N/A,,Clear,0,2013-04-02 07:15:00
3:35 AM,34.2,32.4,93,30.06,10.0,Calm,Calm,-,N/A,,Clear,0,2013-04-02 07:35:00
3:55 AM,34.2,33.3,97,30.07,10.0,Calm,Calm,-,N/A,,Clear,0,2013-04-02 07:55:00
4:15 AM,34.3,32.9,94,30.07,10.0,Calm,Calm,-,N/A,,Clear,0,2013-04-02 08:15:00
4:35 AM,34.3,32.7,94,30.07,10.0,Calm,Calm,-,N/A,,Clear,0,2013-04-02 08:35:00
4:55 AM,34.2,32.2,92,30.08,10.0,Calm,Calm,-,N/A,,Clear,0,2013-04-02 08:55:00
5:15 AM,33.6,32.4,95,30.08,10.0,Calm,Calm,-,N/A,,Clear,0,2013-04-02 09:15:00
5:35 AM,32.9,32.0,96,30.09,10.0,Calm,Calm,-,N/A,,Clear,0,2013-04-02 09:35:00
5:55 AM,32.2,32.0,99,30.11,7.0,Calm,Calm,-,N/A,,Clear,0,2013-04-02 09:55:00
6:15 AM,33.4,31.3,92,30.11,10.0,Calm,Calm,-,N/A,,Clear,0,2013-04-02 10:15:00
6:35 AM,33.1,30.7,91,30.11,10.0,Calm,Calm,-,N/A,,Clear,0,2013-04-02 10:35:00
6:55 AM,33.4,29.1,84,30.12,10.0,Calm,Calm,-,N/A,,Clear,0,2013-04-02 10:55:00
7:15 AM,34.5,27.5,76,30.13,10.0,NNE,3.5,-,N/A,,Clear,20,2013-04-02 11:15:00
7:35 AM,32.0,29.1,89,30.14,10.0,West,4.6,-,N/A,,Clear,260,2013-04-02 11:35:00
7:55 AM,32.2,30.2,92,30.15,7.0,Calm,Calm,-,N/A,,Clear,0,2013-04-02 11:55:00
8:15 AM,32.4,31.8,98,30.14,10.0,Calm,Calm,-,N/A,,Clear,0,2013-04-02 12:15:00
8:35 AM,35.2,31.8,87,30.14,10.0,Calm,Calm,-,N/A,,Clear,0,2013-04-02 12:35:00
8:55 AM,40.1,29.7,66,30.15,10.0,Calm,Calm,-,N/A,,Clear,0,2013-04-02 12:55:00
9:15 AM,42.4,23.7,48,30.15,10.0,NE,4.6,-,N/A,,Clear,40,2013-04-02 13:15:00
9:35 AM,43.5,22.8,44,30.16,10.0,NNE,5.8,-,N/A,,Clear,20,2013-04-02 13:35:00
9:55 AM,44.1,21.2,40,30.16,10.0,Calm,Calm,-,N/A,,Clear,0,2013-04-02 13:55:00
10:15 AM,45.9,20.8,37,30.17,10.0,Calm,Calm,-,N/A,,Clear,0,2013-04-02 14:15:00
10:35 AM,47.1,21.7,37,30.16,10.0,East,4.6,-,N/A,,Clear,90,2013-04-02 14:35:00
10:55 AM,47.7,21.2,35,30.17,10.0,Calm,Calm,-,N/A,,Clear,0,2013-04-02 14:55:00
11:15 AM,48.6,21.4,34,30.16,10.0,SE,3.5,-,N/A,,Clear,130,2013-04-02 15:15:00
11:35 AM,49.5,19.8,31,30.17,10.0,Calm,Calm,-,N/A,,Clear,0,2013-04-02 15:35:00
11:55 AM,51.1,19.8,29,30.16,10.0,SSW,3.5,-,N/A,,Clear,200,2013-04-02 15:55:00
12:15 PM,51.6,16.2,25,30.16,10.0,Calm,Calm,-,N/A,,Clear,0,2013-04-02 16:15:00
12:35 PM,52.5,18.1,26,30.16,10.0,South,5.8,-,N/A,,Clear,190,2013-04-02 16:35:00
12:55 PM,53.4,17.2,24,30.15,10.0,West,3.5,-,N/A,,Clear,280,2013-04-02 16:55:00
1:15 PM,54.0,16.3,23,30.14,10.0,SE,4.6,-,N/A,,Scattered Clouds,140,2013-04-02 17:15:00
1:35 PM,54.7,27.3,35,30.14,10.0,West,5.8,-,N/A,,Scattered Clouds,270,2013-04-02 17:35:00
1:55 PM,55.0,25.9,33,30.13,10.0,SW,6.9,-,N/A,,Scattered Clouds,220,2013-04-02 17:55:00
2:15 PM,55.9,21.0,26,30.11,10.0,Calm,Calm,-,N/A,,Scattered Clouds,0,2013-04-02 18:15:00
2:35 PM,57.2,21.7,25,30.11,10.0,SW,6.9,-,N/A,,Mostly Cloudy,230,2013-04-02 18:35:00
2:55 PM,58.1,21.9,25,30.10,10.0,SW,9.2,-,N/A,,Scattered Clouds,220,2013-04-02 18:55:00
3:15 PM,56.8,20.3,24,30.09,10.0,WSW,8.1,-,N/A,,Mostly Cloudy,250,2013-04-02 19:15:00
3:35 PM,57.2,21.4,25,30.08,10.0,SSW,6.9,-,N/A,,Overcast,200,2013-04-02 19:35:00
3:55 PM,57.2,22.1,26,30.08,10.0,SW,3.5,-,N/A,,Overcast,230,2013-04-02 19:55:00
4:15 PM,59.9,21.7,23,30.08,10.0,WSW,8.1,-,N/A,,Scattered Clouds,240,2013-04-02 20:15:00
4:35 PM,58.5,23.4,26,30.08,10.0,West,9.2,-,N/A,,Scattered Clouds,260,2013-04-02 20:35:00
4:55 PM,56.3,20.1,24,30.08,10.0,SW,11.5,-,N/A,,Mostly Cloudy,230,2013-04-02 20:55:00
5:15 PM,55.4,21.7,27,30.08,10.0,SW,10.4,-,N/A,,Overcast,220,2013-04-02 21:15:00
5:35 PM,54.0,22.1,29,30.09,10.0,SSW,9.2,-,N/A,,Overcast,210,2013-04-02 21:35:00
5:55 PM,54.5,21.7,28,30.09,10.0,SW,9.2,17.3,N/A,,Overcast,220,2013-04-02 21:55:00
6:15 PM,54.7,21.0,27,30.09,10.0,West,4.6,-,N/A,,Overcast,260,2013-04-02 22:15:00
6:35 PM,53.2,19.9,27,30.11,10.0,North,8.1,-,N/A,,Overcast,350,2013-04-02 22:35:00
6:55 PM,52.0,20.1,29,30.11,10.0,North,10.4,-,N/A,,Overcast,360,2013-04-02 22:55:00
7:15 PM,51.3,20.5,30,30.11,10.0,North,10.4,-,N/A,,Overcast,350,2013-04-02 23:15:00
7:35 PM,50.2,21.6,33,30.12,10.0,North,4.6,-,N/A,,Overcast,350,2013-04-02 23:35:00
7:55 PM,50.0,21.7,33,30.13,10.0,SE,4.6,-,N/A,,Overcast,140,2013-04-02 23:55:00
8:15 PM,49.8,21.2,32,30.12,10.0,ESE,4.6,-,N/A,,Overcast,110,2013-04-03 00:15:00
8:35 PM,49.1,21.9,34,30.13,10.0,Calm,Calm,-,N/A,,Overcast,0,2013-04-03 00:35:00
8:55 PM,48.7,22.1,35,30.14,10.0,ENE,4.6,-,N/A,,Overcast,70,2013-04-03 00:55:00
9:15 PM,48.7,20.8,33,30.14,10.0,ENE,4.6,-,N/A,,Overcast,60,2013-04-03 01:15:00
9:35 PM,48.2,23.2,37,30.15,10.0,ENE,4.6,-,N/A,,Overcast,60,2013-04-03 01:35:00
9:55 PM,48.4,21.4,35,30.15,10.0,ESE,3.5,-,N/A,,Overcast,110,2013-04-03 01:55:00
10:15 PM,47.7,23.5,39,30.15,10.0,ENE,4.6,-,N/A,,Overcast,60,2013-04-03 02:15:00
10:35 PM,47.7,22.3,37,30.15,10.0,ENE,4.6,-,N/A,,Overcast,60,2013-04-03 02:35:00
10:55 PM,47.1,25.2,42,30.16,10.0,NE,3.5,-,N/A,,Overcast,50,2013-04-03 02:55:00
11:15 PM,47.1,25.5,43,30.16,10.0,Calm,Calm,-,N/A,,Overcast,0,2013-04-03 03:15:00
11:35 PM,46.0,27.3,48,30.16,10.0,Calm,Calm,-,N/A,,Overcast,0,2013-04-03 03:35:00
11:55 PM,45.9,27.5,49,30.16,10.0,NE,3.5,-,N/A,,Overcast,50,2013-04-03 03:55:00